sat.trackr.live / text

‹ back to catalog

COSMOS 2589

NORAD 64467 · 2025-131A

PAYLOAD ACTIVE UNKNOWN

§ Identity

Operator
Country
CIS
Launch date
2025-06-19
Launch site
PLMSC
Launch vehicle
Mass (kg)
RCS (m²)

External: N2YO · Heavens-Above · Gunter

§ Orbital elements

Epoch: 2026-05-24T09:23:15.747072Z

Period
1,436.15 min
Inclination
0.0529°
Eccentricity
0.0000882
Mean motion
1.00267943 rev/d
Perigee alt
35,784.0 km
Apogee alt
35,791.4 km
Semi-major
42,165.8 km
B*
0.0000e+0
RAAN
50.1364°
Arg perigee
87.8554°
Mean anomaly
342.8243°
Rev number
332

§ Raw data

COSMOS 25891 64467U 25131A   26144.39115448 -.00000295  00000+0  00000+0 0  99962 64467   0.0529  50.1364 0000882  87.8554 342.8243  1.00267943  3325

JSON: /api/v1/satellites/64467 · /tle

For live sub-satellite position, see the globe view (requires WebGL).

§ Visibility from observer

Set your observer location to see the next 7 days of passes ≥ 10°. The values pass through the URL so the page stays shareable.

No JS? Fill the form by hand. The geolocation button needs JavaScript.